Time,TemperatureF,DewpointF,PressureIn,WindDirection,WindDirectionDegrees,WindSpeedMPH,WindSpeedGustMPH,Humidity,HourlyPrecipIn,Conditions,Clouds,dailyrainin,SoftwareType,DateUTC
2013-03-01 00:02:00,38.0,29.0,29.73,West,280,2.0,-999.0,70,-99.99,,,-99.99,,2013-03-01 05:02:00,
2013-03-01 00:11:00,38.0,29.0,29.73,West,280,2.0,-999.0,70,-99.99,,,-99.99,,2013-03-01 05:11:00,
2013-03-01 00:22:00,38.0,29.0,29.73,West,271,2.0,-999.0,70,-99.99,,,-99.99,,2013-03-01 05:22:00,
2013-03-01 00:32:00,38.0,29.0,29.73,WNW,287,2.0,-999.0,71,-99.99,,,-99.99,,2013-03-01 05:32:00,
2013-03-01 00:42:00,38.0,29.0,29.73,WNW,287,2.0,-999.0,71,-99.99,,,-99.99,,2013-03-01 05:42:00,
2013-03-01 00:53:00,38.0,30.0,29.73,NW,306,4.0,-999.0,72,-99.99,,,-99.99,,2013-03-01 05:53:00,
2013-03-01 01:02:00,38.0,30.0,29.74,West,268,2.0,-999.0,72,-99.99,,,-99.99,,2013-03-01 06:02:00,
2013-03-01 01:12:00,38.0,30.0,29.74,WNW,289,2.0,-999.0,72,-99.99,,,-99.99,,2013-03-01 06:12:00,
2013-03-01 01:22:00,38.0,30.0,29.74,WNW,289,2.0,-999.0,72,-99.99,,,-99.99,,2013-03-01 06:22:00,
2013-03-01 01:32:00,38.0,30.0,29.75,WSW,241,4.0,-999.0,73,-99.99,,,-99.99,,2013-03-01 06:32:00,
2013-03-01 01:42:00,38.0,30.0,29.75,WSW,241,4.0,-999.0,73,-99.99,,,-99.99,,2013-03-01 06:42:00,
2013-03-01 01:53:00,37.0,30.0,29.76,NNW,329,2.0,-999.0,75,-99.99,,,-99.99,,2013-03-01 06:53:00,
2013-03-01 02:02:00,37.0,30.0,29.76,North,353,1.0,-999.0,75,-99.99,,,-99.99,,2013-03-01 07:02:00,
2013-03-01 02:12:00,37.0,30.0,29.76,North,353,1.0,-999.0,75,-99.99,,,-99.99,,2013-03-01 07:12:00,
2013-03-01 02:22:00,37.0,30.0,29.76,SW,229,2.0,-999.0,75,-99.99,,,-99.99,,2013-03-01 07:22:00,
2013-03-01 02:32:00,37.0,30.0,29.76,West,274,2.0,-999.0,76,-99.99,,,-99.99,,2013-03-01 07:32:00,
2013-03-01 02:42:00,37.0,30.0,29.76,West,274,2.0,-999.0,76,-99.99,,,-99.99,,2013-03-01 07:42:00,
2013-03-01 02:52:00,37.0,30.0,29.77,West,274,4.0,-999.0,77,-99.99,,,-99.99,,2013-03-01 07:52:00,
2013-03-01 03:02:00,37.0,31.0,29.76,NW,315,3.0,-999.0,78,-99.99,,,-99.99,,2013-03-01 08:02:00,
2013-03-01 03:12:00,37.0,31.0,29.76,NW,315,3.0,-999.0,78,-99.99,,,-99.99,,2013-03-01 08:12:00,
2013-03-01 03:22:00,37.0,31.0,29.76,NW,304,2.0,-999.0,78,-99.99,,,-99.99,,2013-03-01 08:22:00,
2013-03-01 03:32:00,37.0,31.0,29.76,NW,304,1.0,-999.0,79,-99.99,,,-99.99,,2013-03-01 08:32:00,
2013-03-01 03:43:00,37.0,31.0,29.76,NW,304,1.0,-999.0,79,-99.99,,,-99.99,,2013-03-01 08:43:00,
2013-03-01 03:53:00,37.0,31.0,29.77,NNW,333,0.0,-999.0,78,-99.99,,,-99.99,,2013-03-01 08:53:00,
2013-03-01 04:02:00,36.0,30.0,29.77,WNW,292,0.0,-999.0,78,-99.99,,,-99.99,,2013-03-01 09:02:00,
2013-03-01 04:12:00,36.0,30.0,29.77,WNW,292,0.0,-999.0,78,-99.99,,,-99.99,,2013-03-01 09:12:00,
2013-03-01 04:22:00,36.0,30.0,29.77,WNW,285,0.0,-999.0,78,-99.99,,,-99.99,,2013-03-01 09:22:00,
2013-03-01 04:32:00,36.0,29.0,29.77,WNW,296,0.0,-999.0,77,-99.99,,,-99.99,,2013-03-01 09:32:00,
2013-03-01 04:42:00,36.0,29.0,29.77,WNW,296,0.0,-999.0,77,-99.99,,,-99.99,,2013-03-01 09:42:00,
2013-03-01 04:52:00,36.0,29.0,29.77,West,277,1.0,-999.0,77,-99.99,,,-99.99,,2013-03-01 09:52:00,
2013-03-01 05:02:00,36.0,29.0,29.77,NW,318,2.0,-999.0,75,-99.99,,,-99.99,,2013-03-01 10:02:00,
2013-03-01 05:12:00,36.0,29.0,29.77,NW,318,2.0,-999.0,75,-99.99,,,-99.99,,2013-03-01 10:12:00,
2013-03-01 05:22:00,37.0,30.0,29.77,NNW,332,2.0,-999.0,75,-99.99,,,-99.99,,2013-03-01 10:22:00,
2013-03-01 05:32:00,37.0,29.0,29.77,NW,313,4.0,-999.0,74,-99.99,,,-99.99,,2013-03-01 10:32:00,
2013-03-01 05:42:00,37.0,29.0,29.77,NW,313,4.0,-999.0,74,-99.99,,,-99.99,,2013-03-01 10:42:00,
2013-03-01 05:53:00,37.0,29.0,29.77,NW,309,6.0,-999.0,73,-99.99,,,-99.99,,2013-03-01 10:53:00,
2013-03-01 06:02:00,37.0,29.0,29.77,WNW,292,3.0,-999.0,73,-99.99,,,-99.99,,2013-03-01 11:02:00,
2013-03-01 06:11:00,37.0,29.0,29.77,WNW,292,3.0,-999.0,73,-99.99,,,-99.99,,2013-03-01 11:11:00,
2013-03-01 06:22:00,37.0,29.0,29.78,WNW,287,2.0,-999.0,73,-99.99,,,-99.99,,2013-03-01 11:22:00,
2013-03-01 06:32:00,37.0,29.0,29.78,West,265,3.0,-999.0,73,-99.99,,,-99.99,,2013-03-01 11:32:00,
2013-03-01 06:42:00,37.0,29.0,29.78,West,265,3.0,-999.0,73,-99.99,,,-99.99,,2013-03-01 11:42:00,
2013-03-01 06:53:00,37.0,29.0,29.78,WSW,237,2.0,-999.0,73,-99.99,,,-99.99,,2013-03-01 11:53:00,
2013-03-01 07:02:00,36.0,28.0,29.78,WNW,287,3.0,-999.0,73,-99.99,,,-99.99,,2013-03-01 12:02:00,
2013-03-01 07:11:00,36.0,28.0,29.78,WNW,287,3.0,-999.0,73,-99.99,,,-99.99,,2013-03-01 12:11:00,
2013-03-01 07:22:00,36.0,28.0,29.79,West,272,3.0,-999.0,73,-99.99,,,-99.99,,2013-03-01 12:22:00,
2013-03-01 07:32:00,36.0,28.0,29.79,NW,325,4.0,-999.0,72,-99.99,,,-99.99,,2013-03-01 12:32:00,
2013-03-01 07:42:00,36.0,28.0,29.79,NW,325,4.0,-999.0,72,-99.99,,,-99.99,,2013-03-01 12:42:00,
2013-03-01 07:52:00,37.0,28.0,29.80,WSW,258,3.0,-999.0,71,-99.99,,,-99.99,,2013-03-01 12:52:00,
2013-03-01 08:01:00,37.0,28.0,29.81,WNW,289,3.0,-999.0,71,-99.99,,,-99.99,,2013-03-01 13:01:00,
2013-03-01 08:11:00,37.0,28.0,29.81,West,264,4.0,-999.0,70,-99.99,,,-99.99,,2013-03-01 13:11:00,
2013-03-01 08:22:00,37.0,28.0,29.81,West,264,4.0,-999.0,70,-99.99,,,-99.99,,2013-03-01 13:22:00,
2013-03-01 08:32:00,37.0,28.0,29.82,WNW,288,4.0,-999.0,69,-99.99,,,-99.99,,2013-03-01 13:32:00,
2013-03-01 08:42:00,37.0,28.0,29.82,WNW,288,4.0,-999.0,69,-99.99,,,-99.99,,2013-03-01 13:42:00,
2013-03-01 08:52:00,37.0,28.0,29.83,WSW,251,3.0,-999.0,69,-99.99,,,-99.99,,2013-03-01 13:52:00,
2013-03-01 09:01:00,38.0,28.0,29.83,WNW,289,3.0,-999.0,67,-99.99,,,-99.99,,2013-03-01 14:01:00,
2013-03-01 09:11:00,38.0,28.0,29.83,WNW,289,3.0,-999.0,67,-99.99,,,-99.99,,2013-03-01 14:11:00,
2013-03-01 09:21:00,38.0,27.0,29.84,WNW,285,3.0,-999.0,65,-99.99,,,-99.99,,2013-03-01 14:21:00,
2013-03-01 09:32:00,38.0,27.0,29.84,West,270,4.0,-999.0,64,-99.99,,,-99.99,,2013-03-01 14:32:00,
2013-03-01 09:42:00,38.0,27.0,29.84,West,270,4.0,-999.0,64,-99.99,,,-99.99,,2013-03-01 14:42:00,
2013-03-01 09:52:00,38.0,27.0,29.83,West,271,5.0,-999.0,63,-99.99,,,-99.99,,2013-03-01 14:52:00,
2013-03-01 10:02:00,38.0,26.0,29.83,WSW,253,6.0,-999.0,62,-99.99,,,-99.99,,2013-03-01 15:02:00,
2013-03-01 10:11:00,39.0,27.0,29.83,West,280,5.0,-999.0,62,-99.99,,,-99.99,,2013-03-01 15:11:00,
2013-03-01 10:21:00,39.0,27.0,29.83,West,280,5.0,-999.0,62,-99.99,,,-99.99,,2013-03-01 15:21:00,
2013-03-01 10:32:00,39.0,27.0,29.83,WSW,243,6.0,-999.0,62,-99.99,,,-99.99,,2013-03-01 15:32:00,
2013-03-01 10:42:00,39.0,27.0,29.83,WSW,243,6.0,-999.0,62,-99.99,,,-99.99,,2013-03-01 15:42:00,
2013-03-01 10:52:00,39.0,26.0,29.83,WNW,284,7.0,-999.0,60,-99.99,,,-99.99,,2013-03-01 15:52:00,
2013-03-01 11:01:00,39.0,27.0,29.83,NW,320,7.0,-999.0,62,-99.99,,,-99.99,,2013-03-01 16:01:00,
2013-03-01 11:11:00,39.0,27.0,29.83,NW,320,7.0,-999.0,62,-99.99,,,-99.99,,2013-03-01 16:11:00,
2013-03-01 11:21:00,39.0,26.0,29.83,West,264,7.0,-999.0,60,-99.99,,,-99.99,,2013-03-01 16:21:00,
2013-03-01 11:32:00,39.0,26.0,29.83,WNW,296,4.0,-999.0,60,-99.99,,,-99.99,,2013-03-01 16:32:00,
2013-03-01 11:42:00,39.0,26.0,29.83,WNW,296,4.0,-999.0,60,-99.99,,,-99.99,,2013-03-01 16:42:00,
2013-03-01 11:52:00,40.0,26.0,29.83,WNW,291,7.0,-999.0,57,-99.99,,,-99.99,,2013-03-01 16:52:00,
2013-03-01 12:01:00,41.0,26.0,29.83,NW,323,8.0,-999.0,54,-99.99,,,-99.99,,2013-03-01 17:01:00,
2013-03-01 12:11:00,41.0,26.0,29.83,NW,323,8.0,-999.0,54,-99.99,,,-99.99,,2013-03-01 17:11:00,
2013-03-01 12:21:00,41.0,25.0,29.83,North,353,7.0,-999.0,53,-99.99,,,-99.99,,2013-03-01 17:21:00,
2013-03-01 12:32:00,41.0,24.0,29.83,NW,322,8.0,-999.0,51,-99.99,,,-99.99,,2013-03-01 17:32:00,
2013-03-01 12:42:00,42.0,25.0,29.82,NNW,342,8.0,-999.0,51,-99.99,,,-99.99,,2013-03-01 17:42:00,
2013-03-01 12:52:00,42.0,25.0,29.82,NNW,342,8.0,-999.0,51,-99.99,,,-99.99,,2013-03-01 17:52:00,
2013-03-01 13:01:00,42.0,25.0,29.82,SSW,212,5.0,-999.0,50,-99.99,,,-99.99,,2013-03-01 18:01:00,
2013-03-01 13:12:00,42.0,25.0,29.82,SSW,212,5.0,-999.0,50,-99.99,,,-99.99,,2013-03-01 18:12:00,
2013-03-01 13:22:00,42.0,24.0,29.82,NNW,342,6.0,-999.0,49,-99.99,,,-99.99,,2013-03-01 18:22:00,
2013-03-01 13:32:00,42.0,24.0,29.82,WSW,240,7.0,-999.0,49,-99.99,,,-99.99,,2013-03-01 18:32:00,
2013-03-01 13:42:00,42.0,24.0,29.82,North,0,7.0,-999.0,49,-99.99,,,-99.99,,2013-03-01 18:42:00,
2013-03-01 13:52:00,42.0,24.0,29.82,North,0,7.0,-999.0,49,-99.99,,,-99.99,,2013-03-01 18:52:00,
2013-03-01 14:01:00,41.0,23.0,29.82,NNW,330,6.0,-999.0,49,-99.99,,,-99.99,,2013-03-01 19:01:00,
2013-03-01 14:11:00,41.0,23.0,29.82,NNW,330,6.0,-999.0,49,-99.99,,,-99.99,,2013-03-01 19:11:00,
2013-03-01 14:21:00,40.0,22.0,29.81,WNW,292,8.0,-999.0,48,-99.99,,,-99.99,,2013-03-01 19:21:00,
2013-03-01 14:32:00,40.0,23.0,29.81,WNW,288,6.0,-999.0,50,-99.99,,,-99.99,,2013-03-01 19:32:00,
2013-03-01 14:42:00,40.0,23.0,29.81,WNW,288,6.0,-999.0,50,-99.99,,,-99.99,,2013-03-01 19:42:00,
2013-03-01 14:52:00,40.0,23.0,29.81,NW,313,7.0,-999.0,50,-99.99,,,-99.99,,2013-03-01 19:52:00,
2013-03-01 15:01:00,40.0,23.0,29.81,NW,323,6.0,-999.0,50,-99.99,,,-99.99,,2013-03-01 20:01:00,
2013-03-01 15:11:00,40.0,23.0,29.81,NW,323,6.0,-999.0,50,-99.99,,,-99.99,,2013-03-01 20:11:00,
2013-03-01 15:21:00,40.0,24.0,29.81,WNW,294,6.0,-999.0,52,-99.99,,,-99.99,,2013-03-01 20:21:00,
2013-03-01 15:32:00,40.0,24.0,29.82,WNW,288,6.0,-999.0,52,-99.99,,,-99.99,,2013-03-01 20:32:00,
2013-03-01 15:42:00,40.0,24.0,29.82,WNW,288,6.0,-999.0,52,-99.99,,,-99.99,,2013-03-01 20:42:00,
2013-03-01 15:52:00,39.0,23.0,29.82,West,264,6.0,-999.0,53,-99.99,,,-99.99,,2013-03-01 20:52:00,
2013-03-01 16:01:00,39.0,23.0,29.82,WNW,299,4.0,-999.0,53,-99.99,,,-99.99,,2013-03-01 21:01:00,
2013-03-01 16:11:00,39.0,24.0,29.82,West,271,4.0,-999.0,54,-99.99,,,-99.99,,2013-03-01 21:11:00,
2013-03-01 16:21:00,39.0,24.0,29.82,West,271,4.0,-999.0,54,-99.99,,,-99.99,,2013-03-01 21:21:00,
2013-03-01 16:32:00,39.0,24.0,29.83,NNW,330,6.0,-999.0,55,-99.99,,,-99.99,,2013-03-01 21:32:00,
2013-03-01 16:42:00,39.0,25.0,29.83,NW,326,7.0,-999.0,57,-99.99,,,-99.99,,2013-03-01 21:42:00,
2013-03-01 16:52:00,39.0,25.0,29.83,NW,326,7.0,-999.0,57,-99.99,,,-99.99,,2013-03-01 21:52:00,
2013-03-01 17:01:00,38.0,25.0,29.84,NNW,336,6.0,-999.0,59,-99.99,,,-99.99,,2013-03-01 22:01:00,
2013-03-01 17:11:00,38.0,25.0,29.84,WNW,298,5.0,-999.0,60,-99.99,,,-99.99,,2013-03-01 22:11:00,
2013-03-01 17:22:00,38.0,25.0,29.84,WNW,298,5.0,-999.0,60,-99.99,,,-99.99,,2013-03-01 22:22:00,
2013-03-01 17:32:00,37.0,24.0,29.84,NNW,346,6.0,-999.0,60,-99.99,,,-99.99,,2013-03-01 22:32:00,
2013-03-01 17:42:00,37.0,24.0,29.84,NNW,346,6.0,-999.0,60,-99.99,,,-99.99,,2013-03-01 22:42:00,
2013-03-01 17:51:00,37.0,24.0,29.85,WNW,288,6.0,-999.0,60,-99.99,,,-99.99,,2013-03-01 22:51:00,
2013-03-01 18:01:00,37.0,25.0,29.85,NW,326,4.0,-999.0,61,-99.99,,,-99.99,,2013-03-01 23:01:00,
2013-03-01 18:11:00,37.0,25.0,29.85,NW,326,4.0,-999.0,61,-99.99,,,-99.99,,2013-03-01 23:11:00,
2013-03-01 18:21:00,37.0,25.0,29.85,NNW,337,5.0,-999.0,61,-99.99,,,-99.99,,2013-03-01 23:21:00,
2013-03-01 18:32:00,36.0,25.0,29.86,NNW,342,5.0,-999.0,64,-99.99,,,-99.99,,2013-03-01 23:32:00,
2013-03-01 18:41:00,36.0,25.0,29.86,NNW,342,5.0,-999.0,64,-99.99,,,-99.99,,2013-03-01 23:41:00,
2013-03-01 18:52:00,36.0,25.0,29.87,NW,309,4.0,-999.0,65,-99.99,,,-99.99,,2013-03-01 23:52:00,
2013-03-01 19:02:00,36.0,25.0,29.88,North,354,5.0,-999.0,65,-99.99,,,-99.99,,2013-03-02 00:02:00,
2013-03-01 19:12:00,36.0,25.0,29.88,North,354,5.0,-999.0,65,-99.99,,,-99.99,,2013-03-02 00:12:00,
2013-03-01 19:22:00,36.0,25.0,29.88,NW,315,5.0,-999.0,65,-99.99,,,-99.99,,2013-03-02 00:22:00,
2013-03-01 19:32:00,35.0,24.0,29.88,NNW,330,4.0,-999.0,65,-99.99,,,-99.99,,2013-03-02 00:32:00,
2013-03-01 19:42:00,35.0,24.0,29.88,NNW,330,4.0,-999.0,65,-99.99,,,-99.99,,2013-03-02 00:42:00,
2013-03-01 19:52:00,35.0,25.0,29.88,NW,311,2.0,-999.0,66,-99.99,,,-99.99,,2013-03-02 00:52:00,
2013-03-01 20:01:00,34.0,24.0,29.88,WNW,294,3.0,-999.0,67,-99.99,,,-99.99,,2013-03-02 01:01:00,
2013-03-01 20:11:00,34.0,24.0,29.88,WNW,294,3.0,-999.0,67,-99.99,,,-99.99,,2013-03-02 01:11:00,
2013-03-01 20:21:00,34.0,24.0,29.88,NW,311,2.0,-999.0,67,-99.99,,,-99.99,,2013-03-02 01:21:00,
2013-03-01 20:32:00,34.0,24.0,29.89,NW,315,2.0,-999.0,66,-99.99,,,-99.99,,2013-03-02 01:32:00,
2013-03-01 20:41:00,34.0,24.0,29.89,NW,315,2.0,-999.0,66,-99.99,,,-99.99,,2013-03-02 01:41:00,
2013-03-01 20:52:00,34.0,24.0,29.89,WNW,287,2.0,-999.0,66,-99.99,,,-99.99,,2013-03-02 01:52:00,
2013-03-01 21:01:00,34.0,23.0,29.90,NW,323,2.0,-999.0,63,-99.99,,,-99.99,,2013-03-02 02:01:00,
2013-03-01 21:11:00,34.0,23.0,29.90,NW,323,2.0,-999.0,63,-99.99,,,-99.99,,2013-03-02 02:11:00,
2013-03-01 21:22:00,34.0,22.0,29.90,WNW,291,2.0,-999.0,62,-99.99,,,-99.99,,2013-03-02 02:22:00,
2013-03-01 21:32:00,34.0,22.0,29.91,NW,308,3.0,-999.0,61,-99.99,,,-99.99,,2013-03-02 02:32:00,
2013-03-01 21:42:00,34.0,22.0,29.91,NW,308,3.0,-999.0,61,-99.99,,,-99.99,,2013-03-02 02:42:00,
2013-03-01 21:52:00,34.0,22.0,29.91,NW,304,3.0,-999.0,61,-99.99,,,-99.99,,2013-03-02 02:52:00,
2013-03-01 22:02:00,34.0,22.0,29.91,NW,325,3.0,-999.0,61,-99.99,,,-99.99,,2013-03-02 03:02:00,
2013-03-01 22:11:00,34.0,22.0,29.91,NW,325,3.0,-999.0,61,-99.99,,,-99.99,,2013-03-02 03:11:00,
2013-03-01 22:21:00,34.0,22.0,29.91,NNW,344,3.0,-999.0,61,-99.99,,,-99.99,,2013-03-02 03:21:00,
2013-03-01 22:32:00,33.0,21.0,29.91,NNW,328,2.0,-999.0,62,-99.99,,,-99.99,,2013-03-02 03:32:00,
2013-03-01 22:42:00,33.0,21.0,29.91,NNW,328,2.0,-999.0,62,-99.99,,,-99.99,,2013-03-02 03:42:00,
2013-03-01 22:52:00,33.0,21.0,29.91,NW,319,2.0,-999.0,61,-99.99,,,-99.99,,2013-03-02 03:52:00,
2013-03-01 23:01:00,33.0,21.0,29.91,North,349,2.0,-999.0,61,-99.99,,,-99.99,,2013-03-02 04:01:00,
2013-03-01 23:11:00,34.0,22.0,29.91,NNW,328,3.0,-999.0,61,-99.99,,,-99.99,,2013-03-02 04:11:00,
2013-03-01 23:22:00,34.0,22.0,29.91,NNW,328,3.0,-999.0,61,-99.99,,,-99.99,,2013-03-02 04:22:00,
2013-03-01 23:32:00,33.0,21.0,29.90,WNW,289,3.0,-999.0,61,-99.99,,,-99.99,,2013-03-02 04:32:00,
2013-03-01 23:42:00,33.0,21.0,29.90,WNW,289,3.0,-999.0,61,-99.99,,,-99.99,,2013-03-02 04:42:00,
2013-03-01 23:52:00,33.0,21.0,29.90,NNW,340,2.0,-999.0,62,-99.99,,,-99.99,,2013-03-02 04:52:00,